Regional Weather Roundup
Issued by NWS

Home | Current Version | Previous Version | Graphics & Text | Print | Product List | Glossary On
Versions: 1 2 3 4 5 6 7 8 9 10 11 12 13 14 15 16 17 18 19 20 21 22 23 24 25 26 27 28 29 30 31 32 33 34 35 36 37 38 39 40 41 42 43 44 45 46 47 48 49 50
000
ASUS43 KIND 101759
RWRIN

WEATHER ROUNDUP FOR INDIANA
NATIONAL WEATHER SERVICE INDIANAPOLIS IN
200 PM EDT THU JUL 10 2014

NOTE: "FAIR" INDICATES FEW OR NO CLOUDS BELOW 12,000 FEET WITH NO
SIGNIFICANT WEATHER AND/OR OBSTRUCTIONS TO VISIBILITY.

* - STATION DOES NOT REPORT WEATHER SUCH AS PRECIPITATION OR FOG.

+ - STATION NOT QUALITY CONTROLLED BY THE NATIONAL WEATHER SERVICE.
    USE DATA WITH CAUTION...ESPECIALLY DEWPOINT AND RELATIVE
    HUMIDITY OBSERVATIONS.

INZ001>003-010>013-019-020-101900-
NORTHWEST INDIANA

CITY           SKY/WX    TMP DP  RH WIND       PRES   REMARKS
GARY /AIRPORT/ MOSUNNY   75  55  50 E10       30.20S
RENSSELAER +   MOSUNNY   73  54  49 N3        30.19F
VALPARAISO     MOSUNNY   76  52  43 MISG      30.20S
6HR MIN TEMP:  61; 6HR MAX TEMP:  77;


$$

LMZ046-743>745-101900-
SOUTHERN LAKE MICHIGAN

STATION/POSITION TIME  TEMP WIND        PRES
                       AIR  DIR/SP/G
                 (UTC) (F)  (DEG/KT/KT) (MB)
MICHIGAN CITY    1700   68   10/  8/ 10   N/A

$$

INZ004-005-014>016-021>024-101900-
NORTH CENTRAL INDIANA

CITY           SKY/WX    TMP DP  RH WIND       PRES   REMARKS
ELKHART        MOSUNNY   72  48  43 CALM      30.20F
GOSHEN         PTSUNNY   73  51  46 N7        30.19F
6HR MIN TEMP:  61; 6HR MAX TEMP:  74;

SOUTH BEND     MOSUNNY   75  53  46 NW9       30.20S
6HR MIN TEMP:  61; 6HR MAX TEMP:  75;


$$

INZ006>009-017-018-025>027-101900-
NORTHEAST INDIANA

CITY           SKY/WX    TMP DP  RH WIND       PRES   REMARKS
ANGOLA *+      PTSUNNY   73  54  49 N7        30.19S
FORT WAYNE     MOSUNNY   75  50  41 NW6       30.19S
6HR MIN TEMP:  61; 6HR MAX TEMP:  76; 6HR PCP: TRACE;


$$

INZ028-029-035-036-043>045-051>053-101900-
WEST CENTRAL INDIANA

CITY           SKY/WX    TMP DP  RH WIND       PRES   REMARKS
GREENCASTLE +  SUNNY     75  57  53 E3        30.18S
LAFAYETTE      MOSUNNY   76  52  43 N7        30.17F
6HR MIN TEMP:  63; 6HR MAX TEMP:  78;

TERRE HAUTE    MOSUNNY   79  58  48 NE8       30.16F
6HR MIN TEMP:  63; 6HR MAX TEMP:  79;


$$

INZ030>032-037>040-046>048-054>057-064-065-101900-
CENTRAL INDIANA

CITY           SKY/WX    TMP DP  RH WIND       PRES   REMARKS
INDIANAPOLIS   MOSUNNY   78  56  46 VRB5      30.16S
6HR MIN TEMP:  65; 6HR MAX TEMP:  78;

-EAGLE CREEK   SUNNY     76  54  46 N8        30.16F
6HR MIN TEMP:  66; 6HR MAX TEMP:  77;

KOKOMO *+      MOSUNNY   75  54  46 NE6       30.18F
MT COMFORT *+  SUNNY     77  57  50 NE7       30.18S
SHELBYVILLE    SUNNY     79  55  43 N6        30.16S
6HR MIN TEMP:  64; 6HR MAX TEMP:  80;


$$

INZ033-034-041-042-049-050-058-059-101900-
EAST CENTRAL INDIANA

CITY           SKY/WX    TMP DP  RH WIND       PRES   REMARKS
MUNCIE         SUNNY     76  51  41 NE6       30.18S
6HR MIN TEMP:  64; 6HR MAX TEMP:  76;


$$

INZ060-061-067>069-081>083-085>088-101900-
SOUTHWEST INDIANA

CITY           SKY/WX    TMP DP  RH WIND       PRES   REMARKS
EVANSVILLE     MOSUNNY   83  57  41 CALM      30.13F
6HR MIN TEMP:  69; 6HR MAX TEMP:  84;

HUNTINGBURG *+ PTSUNNY   81  59  47 CALM      30.13F
6HR MIN TEMP:  64; 6HR MAX TEMP:  82;


$$

INZ062-063-066-070>080-084-089>092-101900-
SOUTH CENTRAL AND SOUTHEAST INDIANA

CITY           SKY/WX    TMP DP  RH WIND       PRES   REMARKS
BLOOMINGTON    MOSUNNY   80  58  46 N5        30.15F
6HR MIN TEMP:  63; 6HR MAX TEMP:  81;

SEYMOUR +      MOSUNNY   77  39  25 N8        30.14

$$




USA.gov is the U.S. government's official web portal to all federal, state and local government web resources and services.